Tracking 28052 objects as of 22-Sep-2023
HD Live streaming from Space Station
objects crossing your sky now

COSMOS 520

Track COSMOS 520 now!
COSMOS 520 is classified as:


NORAD ID: 6192
Int'l Code: 1972-072A
Perigee: 8,260.0 km
Apogee: 31,980.4 km
Inclination: 72.1 °
Period: 715.2 minutes
Semi major axis: 26491 km
RCS: 12.5618 m2 (large)
Launch date: September 19, 1972
Source: Commonwealth of Independent States (former USSR) (CIS)
Launch site: PLESETSK MISSILE AND SPACE COMPLEX (PKMTR)
Your satellite tracking list
Your tracking list is empty




NASA's NSSDC Master Catalog

Two Line Element Set (TLE):
1 06192U 72072A   23263.54985468  .00000141  00000-0  00000-0 0  9997
2 06192  72.0598 261.1975 4477046 215.8163  98.0109  2.01349758375034
Source of the keplerian elements: AFSPC